FW3788 Weather Reports


time (UTC)temp
C
wind
direction
speed
KPH
gust
KPH
rain 1hr
cm
rain 24hr
cm
rain mn
cm
humidity
%
barometer
mb
20260506213018 22 310 3.2 16.1 0.00 0.00 0.00 41 1017.0
20260506212621 22 310 3.2 11.3 0.00 0.00 0.00 41 1017.1
20260506212118 22 296 1.6 9.7 0.00 0.00 0.00 41 1017.1
20260506211520 21 25 0.0 9.7 0.00 0.00 0.00 41 1017.3
20260506211018 22 336 1.6 9.7 0.00 0.00 0.00 41 1017.3
20260506210518 22 336 0.0 4.8 0.00 0.00 0.00 40 1017.5
20260506210024 21 359 0.0 8.0 0.00 0.00 0.00 43 1017.4
20260506205518 21 350 1.6 12.9 0.00 0.00 0.00 42 1017.5
20260506205018 21 359 3.2 14.5 0.00 0.00 0.00 40 1017.5
20260506204519 21 191 0.0 14.5 0.00 0.00 0.00 43 1017.5
20260506204022 21 316 0.0 6.4 0.00 0.00 0.00 43 1017.6
20260506203520 20 297 1.6 11.3 0.00 0.00 0.00 43 1017.7
20260506203019 20 289 0.0 12.9 0.00 0.00 0.00 43 1017.8
20260506202627 20 330 0.0 12.9 0.00 0.00 0.00 44 1017.8
20260506202018 20 321 1.6 14.5 0.00 0.00 0.00 45 1017.9
20260506201528 21 321 1.6 14.5 0.00 0.00 0.00 43 1017.9
20260506201019 20 33 1.6 11.3 0.00 0.00 0.00 45 1018.0
20260506200518 20 195 0.0 11.3 0.00 0.00 0.00 46 1017.9
20260506200018 19 314 0.0 11.3 0.00 0.00 0.00 47 1018.2
20260506195519 19 295 1.6 11.3 0.00 0.00 0.00 48 1018.1
20260506195018 19 308 0.0 16.1 0.00 0.00 0.00 46 1018.2
20260506194518 19 12 1.6 16.1 0.00 0.00 0.00 48 1018.1
20260506194022 19 305 3.2 14.5 0.00 0.00 0.00 47 1018.2
20260506193518 19 306 4.8 11.3 0.00 0.00 0.00 46 1018.2
20260506193024 19 359 3.2 8.0 0.00 0.00 0.00 46 1018.3
20260506192518 19 314 0.0 6.4 0.00 0.00 0.00 47 1018.4
20260506192021 18 315 0.0 9.7 0.00 0.00 0.00 48 1018.6
20260506191519 18 290 0.0 16.1 0.00 0.00 0.00 49 1018.7
20260506191018 18 339 4.8 19.3 0.00 0.00 0.00 51 1018.7
20260506190519 18 23 3.2 19.3 0.00 0.00 0.00 50 1018.8
20260506190026 18 318 1.6 16.1 0.00 0.00 0.00 52 1018.8
20260506185519 18 289 1.6 19.3 0.00 0.00 0.00 50 1018.8
20260506185018 18 349 6.4 19.3 0.00 0.00 0.00 49 1018.8
20260506184521 18 293 0.0 11.3 0.00 0.00 0.00 51 1018.9
20260506184018 18 310 1.6 12.9 0.00 0.00 0.00 53 1018.9
20260506183520 17 345 3.2 12.9 0.00 0.00 0.00 53 1018.9
20260506183018 17 318 1.6 12.9 0.00 0.00 0.00 53 1018.9
20260506182518 17 346 8.0 14.5 0.00 0.00 0.00 53 1018.9
20260506182020 17 38 1.6 12.9 0.00 0.00 0.00 54 1018.9
20260506181519 17 312 1.6 16.1 0.00 0.00 0.00 57 1018.9
20260506181018 17 347 4.8 16.1 0.00 0.00 0.00 55 1018.9
20260506180518 17 303 1.6 11.3 0.00 0.00 0.00 55 1018.8
20260506180024 17 47 0.0 12.9 0.00 0.00 0.00 55 1018.9
20260506175518 17 10 1.6 16.1 0.00 0.00 0.00 56 1018.8
20260506175018 16 15 1.6 16.1 0.00 0.00 0.00 58 1018.9
20260506174619 16 343 3.2 16.1 0.00 0.00 0.00 57 1018.8
20260506174019 16 359 6.4 11.3 0.00 0.00 0.00 58 1018.9
20260506173519 17 45 3.2 9.7 0.00 0.00 0.00 57 1018.9
20260506173018 16 350 0.0 9.7 0.00 0.00 0.00 58 1019.0
20260506172518 16 12 0.0 11.3 0.00 0.00 0.00 58 1019.1
20260506172018 16 39 6.4 11.3 0.00 0.00 0.00 60 1019.0
20260506171533 16 40 0.0 9.7 0.00 0.00 0.00 60 1019.1
20260506171018 16 359 3.2 9.7 0.00 0.00 0.00 61 1019.0
20260506170522 15 14 1.6 9.7 0.00 0.00 0.00 61 1019.0
20260506170020 15 343 0.0 12.9 0.00 0.00 0.00 64 1019.0
20260506165018 15 334 1.6 9.7 0.00 0.00 0.00 65 1019.1
20260506164523 15 359 3.2 9.7 0.00 0.00 0.00 62 1019.1
20260506164019 15 245 0.0 3.2 0.00 0.00 0.00 62 1019.1
20260506163518 15 245 0.0 0.0 0.00 0.00 0.00 65 1019.1
20260506163019 15 245 0.0 0.0 0.00 0.00 0.00 67 1019.2
20260506162518 13 245 0.0 0.0 0.00 0.00 0.00 69 1019.3
20260506162019 13 245 0.0 0.0 0.00 0.00 0.00 70 1019.2
20260506161519 12 245 0.0 0.0 0.00 0.00 0.00 72 1019.1
20260506161018 12 245 0.0 0.0 0.00 0.00 0.00 74 1019.3
20260506160520 12 245 0.0 0.0 0.00 0.00 0.00 75 1019.4
20260506160021 11 245 0.0 4.8 0.00 0.00 0.00 77 1019.4
20260506155519 11 245 0.0 6.4 0.00 0.00 0.00 79 1019.4
20260506155019 11 245 0.0 8.0 0.00 0.00 0.00 80 1019.5
20260506154520 11 245 0.0 6.4 0.00 0.00 0.00 85 1019.5
20260506154019 10 245 0.0 0.0 0.00 0.00 0.00 87 1019.6
20260506153519 10 245 0.0 0.0 0.00 0.00 0.00 89 1019.7
20260506130022 5 245 0.0 0.0 0.00 0.00 0.00 92 1018.9
20260506125518 5 245 0.0 0.0 0.00 0.00 0.00 92 1018.7
20260506125018 5 245 0.0 0.0 0.00 0.00 0.00 92 1018.7
20260506124521 5 245 0.0 0.0 0.00 0.00 0.00 92 1018.7
20260506124018 5 245 0.0 0.0 0.00 0.00 0.00 92 1018.7
20260506123517 5 245 0.0 0.0 0.00 0.00 0.00 91 1018.6
20260506123018 5 245 0.0 0.0 0.00 0.00 0.00 91 1018.6
20260506122518 5 245 0.0 0.0 0.00 0.00 0.00 91 1018.6
20260506122021 5 245 0.0 0.0 0.00 0.00 0.00 91 1018.5
20260506121518 5 245 0.0 0.0 0.00 0.00 0.00 91 1018.5
20260506121017 5 245 0.0 0.0 0.00 0.00 0.00 92 1018.5
20260506120522 5 245 0.0 0.0 0.00 0.00 0.00 92 1018.5
20260506120020 5 245 0.0 0.0 0.00 0.00 0.00 91 1018.5
20260506115518 5 245 0.0 0.0 0.00 0.00 0.00 91 1018.5
20260506115017 5 245 0.0 0.0 0.00 0.00 0.00 92 1018.5
20260506114532 5 245 0.0 0.0 0.00 0.00 0.00 91 1018.5
20260506114017 5 245 0.0 0.0 0.00 0.00 0.00 91 1018.4
20260506113521 5 245 0.0 0.0 0.00 0.00 0.00 91 1018.4
20260506113020 5 245 0.0 0.0 0.00 0.00 0.00 91 1018.3
20260506112521 5 245 0.0 0.0 0.00 0.00 0.00 91 1018.3
20260506112018 5 245 0.0 0.0 0.00 0.00 0.00 92 1018.2
20260506111517 5 245 0.0 0.0 0.00 0.00 0.00 92 1018.1
20260506111018 5 245 0.0 0.0 0.00 0.00 0.00 91 1018.0
20260506110521 5 245 0.0 0.0 0.00 0.00 0.00 91 1018.1
20260506110021 5 245 0.0 0.0 0.00 0.00 0.00 91 1018.1
20260506105524 5 245 0.0 0.0 0.00 0.00 0.00 91 1018.0
20260506105018 5 245 0.0 0.0 0.00 0.00 0.00 91 1017.9
20260506104517 5 245 0.0 0.0 0.00 0.00 0.00 91 1017.9
20260506104018 5 245 0.0 0.0 0.00 0.00 0.00 91 1017.8
20260506103521 5 245 0.0 0.0 0.00 0.00 0.00 91 1017.7
20260506103119 5 245 0.0 0.0 0.00 0.00 0.00 91 1017.7
20260506102519 5 245 0.0 0.0 0.00 0.00 0.00 91 1017.6
20260506102017 5 245 0.0 0.0 0.00 0.00 0.00 91 1017.6
20260506101519 5 245 0.0 0.0 0.00 0.00 0.00 91 1017.6
20260506101017 5 245 0.0 0.0 0.00 0.00 0.00 91 1017.6
20260506100518 5 245 0.0 0.0 0.00 0.00 0.00 91 1017.7
20260506100023 5 245 0.0 0.0 0.00 0.00 0.00 91 1017.7
20260506095518 5 245 0.0 0.0 0.00 0.00 0.00 91 1017.7
20260506095020 5 245 0.0 0.0 0.00 0.00 0.00 90 1017.7
20260506094519 5 245 0.0 0.0 0.00 0.00 0.00 91 1017.7
20260506094018 5 245 0.0 0.0 0.00 0.00 0.00 91 1017.8
20260506093520 5 245 0.0 0.0 0.00 0.00 0.00 91 1017.8
20260506093019 5 245 0.0 0.0 0.00 0.00 0.00 91 1017.9
20260506092524 5 251 0.0 0.0 0.00 0.00 0.00 91 1018.0
20260506092018 5 251 0.0 0.0 0.00 0.00 0.00 91 1018.1
20260506091521 5 251 0.0 0.0 0.00 0.00 0.00 91 1018.1
20260506091018 5 251 0.0 0.0 0.00 0.00 0.00 91 1018.1
20260506090517 5 251 0.0 0.0 0.00 0.00 0.00 91 1018.1
20260506090017 5 251 0.0 0.0 0.00 0.00 0.00 90 1018.1
20260506085517 5 251 0.0 0.0 0.00 0.00 0.00 90 1017.9
20260506085018 5 251 0.0 0.0 0.00 0.00 0.00 90 1017.9
20260506084518 5 251 0.0 0.0 0.00 0.00 0.00 90 1017.8
20260506084019 5 251 0.0 0.0 0.00 0.00 0.00 90 1017.9
20260506083620 5 251 0.0 0.0 0.00 0.00 0.00 90 1018.0
20260506083018 5 251 0.0 0.0 0.00 0.00 0.00 90 1018.1
20260506082517 5 251 0.0 0.0 0.00 0.00 0.00 89 1018.1
20260506082018 5 251 0.0 0.0 0.00 0.00 0.00 90 1018.1
20260506081519 5 251 0.0 0.0 0.00 0.00 0.00 90 1018.0
20260506081019 5 254 0.0 0.0 0.00 0.00 0.00 90 1018.0
20260506080518 5 254 0.0 0.0 0.00 0.00 0.00 89 1018.0
20260506073518 5 254 0.0 0.0 0.00 0.00 0.00 88 1017.6
20260506073018 5 254 0.0 0.0 0.00 0.00 0.00 88 1017.6
20260506072518 6 254 0.0 0.0 0.00 0.00 0.00 88 1017.4
20260506072019 6 254 0.0 0.0 0.00 0.00 0.00 88 1017.6
20260506071518 6 254 0.0 0.0 0.00 0.00 0.00 88 1017.4
20260506071018 6 254 0.0 0.0 0.00 0.00 0.00 88 1017.4
20260506070518 6 254 0.0 0.0 0.00 0.00 0.00 88 1017.2
20260506062019 6 254 0.0 0.0 0.00 0.00 0.00 87 1017.2
20260506061518 7 254 0.0 0.0 0.00 0.00 0.00 87 1017.1
20260506061019 6 254 0.0 0.0 0.00 0.00 0.00 86 1017.1
20260506060518 7 254 0.0 0.0 0.00 0.00 0.00 86 1017.1
20260506051018 7 255 0.0 0.0 0.00 0.00 0.00 84 1016.7
20260506050518 7 255 0.0 0.0 0.00 0.00 0.00 84 1016.7
20260506045018 7 296 0.0 0.0 0.00 0.00 0.00 82 1016.3
20260506044528 7 296 0.0 0.0 0.00 0.00 0.00 83 1016.3
20260506044018 8 296 0.0 0.0 0.00 0.00 0.00 82 1016.3
20260506043519 8 296 0.0 0.0 0.00 0.00 0.00 82 1016.2
20260506043019 8 296 0.0 0.0 0.00 0.00 0.00 80 1016.1
20260506042522 9 297 0.0 0.0 0.00 0.00 0.00 81 1016.1
20260506042019 9 297 0.0 0.0 0.00 0.00 0.00 80 1015.9
20260506041519 9 297 0.0 0.0 0.00 0.00 0.00 80 1015.9
20260506041018 10 297 0.0 0.0 0.00 0.00 0.00 81 1015.8
20260506040518 10 297 0.0 0.0 0.00 0.00 0.00 81 1015.8
20260506040018 10 297 0.0 0.0 0.00 0.00 0.00 81 1015.7
20260506035521 10 297 0.0 0.0 0.00 0.00 0.00 80 1015.6
20260506035018 10 297 0.0 0.0 0.00 0.00 0.00 79 1015.5
20260506034519 10 297 0.0 0.0 0.00 0.00 0.00 78 1015.5
20260506034018 10 297 0.0 0.0 0.00 0.00 0.00 78 1015.3
20260506033618 10 297 0.0 0.0 0.00 0.00 0.00 77 1015.2
20260506033028 10 297 0.0 0.0 0.00 0.00 0.00 76 1015.2
20260506032518 11 297 0.0 0.0 0.00 0.00 0.00 75 1015.1
20260506032019 11 297 0.0 0.0 0.00 0.00 0.00 74 1015.0
20260506031529 11 297 0.0 0.0 0.00 0.00 0.00 74 1014.9
20260506031019 11 297 0.0 0.0 0.00 0.00 0.00 73 1014.8
20260506030523 11 297 0.0 0.0 0.00 0.00 0.00 72 1014.7
20260506030041 11 297 0.0 0.0 0.00 0.00 0.00 72 1014.6
20260506025518 11 297 0.0 0.0 0.00 0.00 0.00 71 1014.6
20260506025022 11 297 0.0 0.0 0.00 0.00 0.00 71 1014.5
20260506024526 12 296 0.0 0.0 0.00 0.00 0.00 70 1014.5
20260506024018 12 296 0.0 0.0 0.00 0.00 0.00 69 1014.5
20260506023519 12 296 0.0 6.4 0.00 0.00 0.00 68 1014.5
20260506023019 12 296 0.0 6.4 0.00 0.00 0.00 67 1014.5
20260506022518 12 287 0.0 1.6 0.00 0.00 0.00 66 1014.4
20260506022019 13 289 0.0 3.2 0.00 0.00 0.00 65 1014.4
20260506021619 13 289 0.0 8.0 0.00 0.00 0.00 64 1014.4
20260506021019 13 297 1.6 8.0 0.00 0.00 0.00 64 1014.3
20260506020524 13 284 0.0 0.0 0.00 0.00 0.00 64 1014.3
20260506020019 13 284 0.0 0.0 0.00 0.00 0.00 64 1014.3
20260506015518 13 284 0.0 0.0 0.00 0.03 0.00 63 1014.3
20260506015019 13 284 0.0 0.0 0.00 0.03 0.00 63 1014.2
20260506014518 13 284 0.0 9.7 0.00 0.03 0.00 63 1014.2
20260506014018 13 283 1.6 9.7 0.00 0.03 0.00 63 1014.2
20260506013518 13 286 1.6 9.7 0.00 0.03 0.00 64 1014.2
20260506013019 13 293 0.0 9.7 0.00 0.03 0.00 63 1014.2
20260506012018 13 292 0.0 6.4 0.00 0.03 0.00 62 1014.3
20260506011529 13 289 0.0 8.0 0.00 0.03 0.00 62 1014.3
20260506011022 13 298 0.0 14.5 0.00 0.03 0.00 61 1014.3
20260506010518 13 307 1.6 14.5 0.00 0.03 0.00 61 1014.3
20260506010019 14 282 1.6 9.7 0.00 0.03 0.00 61 1014.4
20260506005519 14 339 0.0 11.3 0.00 0.13 0.00 58 1014.4
20260506005018 15 322 3.2 11.3 0.00 0.13 0.00 58 1014.3
20260506004533 15 343 0.0 6.4 0.00 0.13 0.00 59 1014.4
20260506004018 14 284 0.0 6.4 0.00 0.13 0.00 59 1014.4
20260506003519 14 301 0.0 14.5 0.00 0.13 0.00 60 1014.4
20260506003023 14 294 3.2 14.5 0.00 0.13 0.00 61 1014.3
20260506002518 14 276 0.0 11.3 0.00 0.13 0.00 59 1014.3
20260506002019 13 308 0.0 11.3 0.00 0.13 0.00 61 1014.3
20260506001522 13 322 3.2 11.3 0.00 0.13 0.00 60 1014.3
20260506001019 13 299 0.0 9.7 0.00 0.13 0.00 61 1014.3
20260506000519 13 303 1.6 9.7 0.00 0.13 0.00 61 1014.3
20260506000023 13 301 0.0 8.0 0.00 0.13 0.00 61 1014.3
20260505235519 13 328 3.2 9.7 0.00 0.13 0.00 63 1014.3
20260505235019 13 274 1.6 9.7 0.00 0.13 0.00 63 1014.3
20260505234519 13 329 1.6 9.7 0.00 0.13 0.00 64 1014.3
20260505234018 13 291 0.0 11.3 0.00 0.13 0.00 64 1014.4
20260505233521 13 266 1.6 11.3 0.00 0.13 0.00 64 1014.4
20260505233018 13 293 1.6 16.1 0.00 0.13 0.00 63 1014.4
20260505232519 13 332 1.6 16.1 0.00 0.13 0.00 62 1014.5
20260505232018 13 299 3.2 12.9 0.00 0.13 0.00 61 1014.5
20260505231525 13 287 0.0 14.5 0.00 0.13 0.00 62 1014.4
20260505231118 13 299 3.2 16.1 0.00 0.13 0.00 63 1014.3
20260505230519 13 314 4.8 17.7 0.00 0.13 0.00 62 1014.4
20260505230023 13 346 3.2 14.5 0.00 0.13 0.00 61 1014.3
20260505225518 13 333 4.8 14.5 0.00 0.13 0.00 62 1014.4
20260505225024 13 328 1.6 11.3 0.00 0.13 0.00 62 1014.3
20260505224519 13 303 1.6 11.3 0.00 0.13 0.00 62 1014.3
20260505224018 13 275 1.6 12.9 0.00 0.13 0.00 61 1014.5
20260505223520 13 322 6.4 16.1 0.00 0.13 0.00 60 1014.4
20260505223018 13 288 3.2 16.1 0.00 0.13 0.00 61 1014.4
20260505222018 14 326 4.8 14.5 0.00 0.13 0.00 58 1014.5
20260505221520 14 314 1.6 9.7 0.00 0.13 0.00 59 1014.5
20260505221019 13 266 0.0 11.3 0.00 0.13 0.00 60 1014.5
20260505220518 13 293 3.2 11.3 0.00 0.13 0.00 58 1014.6
20260505220018 13 320 0.0 4.8 0.00 0.13 0.00 60 1014.6
20260505215621 13 320 0.0 9.7 0.00 0.13 0.00 60 1014.6
20260505215022 13 319 1.6 9.7 0.00 0.13 0.00 60 1014.7
20260505214619 13 297 0.0 14.5 0.00 0.13 0.00 64 1014.6
20260505214017 13 293 1.6 14.5 0.00 0.13 0.00 62 1014.7
20260505213522 13 316 1.6 6.4 0.00 0.13 0.00 62 1014.8